Flag for USA

Past Weather in Biloxi, Mississippi, USA — Yesterday and Last 2 Weeks

Now
71 °F

Passing clouds.


Feels Like: 70 °F
Forecast: 81 / 70 °F
Wind: 7 mph from Northeast

Location: Keesler Air Force Base / Biloxi
Current Time: Oct 26, 2020 at 11:45:11 pm
Latest Report: Oct 26, 2020 at 10:56 pm
Visibility: 10 mi
Pressure30.05 "Hg
Humidity: 85%
Dew Point: 66 °F
Location of BiloxiLocation

Past Weather in Biloxi — Graph

°F

Biloxi Temperature Yesterday

Maximum temperature yesterday: 75 °F (at 4:21 pm)
Minimum temperature yesterday: 61 °F (at 6:56 am)
Average temperature yesterday: 67 °F

High & Low Weather Summary for the Past Weeks

 TemperatureHumidityPressure
High86 °F (Oct 13, 3:56 pm)100% (Oct 12, 1:56 am)30.26 "Hg (Oct 12, 1:56 am)
Low51 °F (Oct 17, 5:56 am)27% (Oct 17, 12:56 pm)29.87 "Hg (Oct 24, 2:56 pm)
Average72 °F81%30.03 "Hg
* Reported Oct 11 9:56 pm — Oct 26 9:56 pm, Biloxi. Weather by CustomWeather, © 2020

Note: Actual official high and low records may vary slightly from our data, if they occured in-between our weather recording intervals... More about our weather records

Biloxi Weather History for the Previous 24 Hours

Scroll right to see more
 ConditionsComfort  
Time TempWeatherWind HumidityBarometerVisibility
9:56 pm
Mon, Oct 26
70 °FClear.6 mph88%30.04 "Hg10 mi
8:56 pm72 °FClear.3 mph85%30.03 "Hg10 mi
7:56 pm74 °FClear.No wind86%30.02 "Hg10 mi
6:56 pm75 °FClear.No wind80%30.00 "Hg10 mi
5:56 pm77 °FSunny.6 mph70%29.99 "Hg10 mi
4:56 pm80 °FSunny.3 mph65%29.98 "Hg10 mi
3:56 pm79 °FSunny.3 mph69%29.98 "Hg10 mi
2:56 pm80 °FPassing clouds.8 mph69%29.98 "Hg10 mi
1:56 pm80 °FScattered clouds.8 mph65%29.99 "Hg10 mi
12:56 pm79 °FSunny.7 mph67%30.02 "Hg10 mi
11:56 am75 °FSunny.7 mph74%30.05 "Hg10 mi
10:56 am71 °FOvercast.9 mph80%30.07 "Hg10 mi
9:56 am69 °FPartly sunny.8 mph83%30.07 "Hg10 mi
8:56 am65 °FPartly sunny.8 mph92%30.06 "Hg10 mi
7:56 am64 °FSunny.8 mph94%30.04 "Hg10 mi
6:56 am63 °FPassing clouds.7 mph96%30.03 "Hg10 mi
5:56 am63 °FPassing clouds.8 mph97%30.01 "Hg10 mi
4:56 am63 °FOvercast.7 mph98%30.00 "Hg10 mi
3:56 am63 °FPassing clouds.7 mph97%29.99 "Hg10 mi
2:56 am63 °FPassing clouds.6 mph97%30.00 "Hg10 mi
1:56 am64 °FPassing clouds.7 mph96%30.00 "Hg10 mi
1:31 am64 °FPassing clouds.7 mph94%30.00 "Hg10 mi
12:56 am64 °FPassing clouds.7 mph94%30.00 "Hg10 mi
12:41 am64 °FPassing clouds.8 mph94%30.00 "Hg10 mi
11:56 pm
Sun, Oct 25
65 °FClear.6 mph93%30.00 "Hg10 mi
Weather by CustomWeather, © 2020

See weather overview